This demonstration page uses our WeatherBlox Daily Observations layout. Learn more.

39.29038, -76.61219

Hourly Observations for March 26, 2019

Temp ( °F °C ) Dew Point ( °F °C ) Humidity (%) Winds ( mph kmh ) Pressure ( in mb ) Visibility ( mi km ) Precip ( " mm )
12:54 am 00:54 undefined 42 5.6 35 1.7 76 76 undefined N/A 30.1 1019 N/A 0 0
1:54 am 01:54 undefined 43 6.1 34 1.1 71 71 undefined N/A 30.11 1020 N/A 0 0
2:54 am 02:54 undefined 43 6.1 32 0 65 65 undefined N/A 30.12 1020 N/A 0 0
3:54 am 03:54 undefined 43 6.1 29 -1.7 58 58 undefined N/A 30.12 1020 N/A 0 0
4:54 am 04:54 undefined 41 5 19 -7.2 41 41 undefined N/A 30.15 1021 N/A 0 0
5:54 am 05:54 undefined 39 3.9 16 -8.9 39 39 undefined N/A 30.18 1022 N/A 0 0
6:54 am 06:54 undefined 37 2.8 12 -11.1 36 36 undefined N/A 30.2 1023 N/A 0 0
7:54 am 07:54 undefined 37 2.8 9 -12.8 31 31 undefined N/A 30.24 1024 N/A 0 0
8:54 am 08:54 undefined 38 3.3 8 -13.3 29 29 undefined N/A 30.27 1025 N/A 0 0
9:54 am 09:54 undefined 39 3.9 7 -13.9 26 26 undefined N/A 30.3 1026 N/A 0 0
10:54 am 10:54 undefined 41 5 9 -12.8 27 27 undefined N/A 30.32 1027 N/A 0 0
11:54 am 11:54 undefined 43 6.1 12 -11.1 28 28 undefined N/A 30.32 1027 N/A 0 0
12:54 pm 12:54 undefined 45 7.2 14 -10 29 29 undefined N/A 30.32 1027 N/A 0 0
1:54 pm 13:54 undefined 47 8.3 11 -11.7 23 23 undefined N/A 30.31 1026 N/A 0 0
2:54 pm 14:54 undefined 48 8.9 13 -10.6 24 24 undefined N/A 30.29 1026 N/A 0 0
3:54 pm 15:54 undefined 48 8.9 12 -11.1 23 23 undefined N/A 30.29 1026 N/A 0 0
4:54 pm 16:54 undefined 49 9.4 13 -10.6 23 23 undefined N/A 30.29 1026 N/A 0 0
5:54 pm 17:54 undefined 47 8.3 12 -11.1 24 24 undefined N/A 30.3 1026 N/A 0 0
6:54 pm 18:54 undefined 47 8.3 10 -12.2 22 22 undefined N/A 30.31 1027 N/A 0 0
7:54 pm 19:54 undefined 47 8.3 11 -11.7 23 23 undefined N/A 30.33 1027 N/A 0 0
8:54 pm 20:54 undefined 46 7.8 12 -11.1 25 25 undefined N/A 30.35 1028 N/A 0 0
9:54 pm 21:54 undefined 45 7.2 13 -10.6 27 27 undefined N/A 30.37 1028 N/A 0 0
10:54 pm 22:54 undefined 45 7.2 12 -11.1 26 26 undefined N/A 30.37 1029 N/A 0 0
11:54 pm 23:54 undefined 44 6.7 13 -10.6 28 28 undefined N/A 30.38 1029 N/A 0 0

Powered by AerisWeather